Weather at Kapitanovtsi Airstrip [CLOSED]

Public forecast

Using degrees Celsius for public forecast. Weather courtesy of forecast.io.

Closest aviation weather report (METAR) to Kapitanovtsi Airstrip

Closest report is Craiova Airport, 46.3 nm (85.7 km) ENE. Retrieved 2022/07/01 17:30 UTC (23 seconds ago):

LRCV 011730Z 25004KT 240V300 9999 FEW050CB 27/15 Q1014

Closest aviation forecast (TAF) to Kapitanovtsi Airstrip

Forecast is more than 12 hours old.

Closest forecast is Craiova Airport, 46.3 nm (85.7 km) ENE. Retrieved 2014/07/19 18:48 UTC (8 years ago):

TAF LRCV 191800Z 1918/2024 CNL